Salina, KS

4:44 PM CDT on June 24, 2018 (GMT -0500)
Salina Municipal

Weather History for KSLN - October, 2017

Change the Weather History Date:

Thursday, October 12, 2017

  Actual Average Record
Temperature  
Mean Temperature 66 °F 59 °F  
Max Temperature 82 °F 70 °F 94 °F (1899)
Min Temperature 50 °F 47 °F 21 °F (1917)
Degree Days  
Heating Degree Days 0 7  
Month to date heating degree days 46 72  
Since 1 July heating degree days 54 124  
Cooling Degree Days 1 1  
Month to date cooling degree days 50 23  
Year to date cooling degree days 1949 1635  
Growing Degree Days 16 (Base 50)    
Moisture  
Dew Point 54 °F    
Average Humidity 66    
Maximum Humidity 86    
Minimum Humidity 45    
Precipitation  
Precipitation 0.00 in 0.08 in 1.14 in (2007)
Month to date precipitation 4.95 0.99  
Year to date precipitation 24.49 28.03  
Sea Level Pressure  
Sea Level Pressure 29.92 in    
Wind  
Wind Speed 15 mph (SSE)    
Max Wind Speed 25 mph    
Max Gust Speed 35 mph    
Visibility 10 miles    
Events      
T = Trace of Precipitation, MM = Missing Value Source: NWS Daily Summary

Daily Weather History Graph

Daily Weather History Graph

Search for Another Location

Airport or City:

Astronomy

Oct. 12, 2017 Rise Set
Actual Time 7:37 AM CDT 6:56 PM CDT
Civil Twilight 7:10 AM CDT 7:22 PM CDT
Nautical Twilight 6:39 AM CDT 7:53 PM CDT
Astronomical Twilight 6:08 AM CDT 8:24 PM CDT
Moon 12:04 AM CDT (10/12) 2:47 PM CDT (10/12)
Length of Visible Light 12h 12m
Length of Day
11h 18m
Waning Gibbous, 48% of the Moon is Illuminated
Oct 12
Waning Gibbous
Oct 19
New
Oct 27
First Quarter
Nov 4
Full
Nov 10
Last Quarter

Hourly Weather History & Observations

Time (CDT) Temp. Heat Index Dew Point Humidity Pressure Visibility Wind Dir Wind Speed Gust Speed Precip Events Conditions
12:53 AM 51.1 °F - 45.0 °F 80% 30.06 in 10.0 mi SE 9.2 mph - N/A   Clear
1:53 AM 50.0 °F - 45.0 °F 83% 30.06 in 10.0 mi SE 8.1 mph - N/A   Clear
2:53 AM 50.0 °F - 46.0 °F 86% 30.03 in 10.0 mi SE 9.2 mph - N/A   Clear
3:53 AM 53.1 °F - 48.0 °F 83% 30.01 in 10.0 mi SSE 10.4 mph - N/A   Clear
4:53 AM 53.1 °F - 48.9 °F 86% 30.00 in 10.0 mi SE 10.4 mph - N/A   Clear
5:53 AM 54.0 °F - 48.9 °F 83% 29.99 in 10.0 mi SSE 11.5 mph - N/A   Clear
6:53 AM 54.0 °F - 48.9 °F 83% 29.99 in 10.0 mi SSE 10.4 mph - N/A   Clear
7:53 AM 54.0 °F - 48.9 °F 83% 29.98 in 10.0 mi SE 12.7 mph - N/A   Clear
8:53 AM 57.0 °F - 50.0 °F 77% 29.99 in 10.0 mi SSE 13.8 mph - N/A   Clear
9:53 AM 64.0 °F - 50.0 °F 60% 29.97 in 10.0 mi SSE 20.7 mph 27.6 mph N/A   Clear
10:32 AM 66.0 °F - 51.1 °F 59% 29.97 in 0.8 mi North - - N/A   Haze
10:43 AM - - - N/A% 29.97 in - North - - N/A   Clear
10:53 AM 66.2 °F - 51.8 °F 60% 29.96 in 10.0 mi North - - N/A   Clear
11:53 AM 71.1 °F - 55.0 °F 57% 29.93 in 10.0 mi South 25.3 mph 34.5 mph N/A   Clear
12:53 PM 73.9 °F - 55.9 °F 53% 29.90 in 10.0 mi South 20.7 mph 26.5 mph N/A   Clear
1:53 PM 77.0 °F - 57.0 °F 50% 29.86 in 10.0 mi South 20.7 mph 26.5 mph N/A   Clear
2:53 PM 79.0 °F - 57.0 °F 47% 29.83 in 10.0 mi South 17.3 mph 27.6 mph N/A   Clear
3:53 PM 81.0 °F 81.1 °F 57.9 °F 45% 29.81 in 10.0 mi South 17.3 mph 23.0 mph N/A   Clear
4:53 PM 82.0 °F 82.4 °F 60.1 °F 47% 29.81 in 10.0 mi South 16.1 mph 24.2 mph N/A   Clear
5:53 PM 81.0 °F 81.7 °F 61.0 °F 50% 29.80 in 10.0 mi South 15.0 mph - N/A   Clear
6:53 PM 75.0 °F - 62.1 °F 64% 29.81 in 10.0 mi South 11.5 mph - N/A   Clear
7:53 PM 75.0 °F - 62.1 °F 64% 29.83 in 10.0 mi South 15.0 mph - N/A   Clear
8:53 PM 73.0 °F - 62.1 °F 68% 29.83 in 10.0 mi South 12.7 mph - N/A   Clear
9:53 PM 73.9 °F - 62.1 °F 66% 29.83 in 10.0 mi South 18.4 mph 24.2 mph N/A   Clear
10:53 PM 72.0 °F - 62.1 °F 71% 29.87 in 10.0 mi South 15.0 mph - N/A   Clear
11:53 PM 71.1 °F - 61.0 °F 70% 29.84 in 10.0 mi South 17.3 mph 24.2 mph N/A   Clear